TimeMST,TemperatureF,Dew PointF,Humidity,Sea Level PressureIn,VisibilityMPH,Wind Direction,Wind SpeedMPH,Gust SpeedMPH,PrecipitationIn,Events,Conditions,WindDirDegrees,DateUTC
12:53 AM,53.1,26.1,35,29.94,10.0,East,8.1,-,N/A,,Clear,90,2013-01-10 07:53:00
1:53 AM,51.1,26.1,38,29.93,10.0,East,9.2,-,N/A,,Clear,80,2013-01-10 08:53:00
2:53 AM,48.9,25.0,39,29.94,10.0,Calm,Calm,-,N/A,,Clear,0,2013-01-10 09:53:00
3:53 AM,51.1,24.1,35,29.92,10.0,East,8.1,-,N/A,,Clear,90,2013-01-10 10:53:00
4:53 AM,46.9,24.1,41,29.90,10.0,Calm,Calm,-,N/A,,Clear,0,2013-01-10 11:53:00
5:53 AM,50.0,21.9,33,29.88,10.0,East,6.9,-,N/A,,Clear,80,2013-01-10 12:53:00
6:53 AM,46.0,23.0,40,29.89,10.0,Calm,Calm,-,N/A,,Clear,0,2013-01-10 13:53:00
8:53 AM,48.9,23.0,36,29.92,10.0,Calm,Calm,-,N/A,,Clear,0,2013-01-10 15:53:00
9:53 AM,51.1,23.0,33,29.89,10.0,ESE,10.4,-,N/A,,Clear,110,2013-01-10 16:53:00
10:53 AM,55.0,21.9,28,29.88,10.0,SE,10.4,-,N/A,,Clear,130,2013-01-10 17:53:00
11:53 AM,57.0,23.0,27,29.84,10.0,SE,10.4,-,N/A,,Clear,140,2013-01-10 18:53:00
12:53 PM,57.9,24.1,27,29.80,10.0,SE,8.1,-,N/A,,Clear,140,2013-01-10 19:53:00
1:53 PM,57.9,25.0,28,29.79,10.0,Calm,Calm,-,N/A,,Clear,0,2013-01-10 20:53:00
2:53 PM,57.9,27.0,31,29.78,10.0,Calm,Calm,-,N/A,,Partly Cloudy,0,2013-01-10 21:53:00
3:53 PM,55.9,28.9,36,29.77,10.0,Calm,Calm,-,N/A,,Scattered Clouds,0,2013-01-10 22:53:00
4:53 PM,55.0,28.9,37,29.78,10.0,Calm,Calm,-,N/A,,Overcast,0,2013-01-10 23:53:00
5:53 PM,55.0,27.0,34,29.77,10.0,SW,4.6,-,N/A,,Partly Cloudy,220,2013-01-11 00:53:00
6:53 PM,52.0,27.0,38,29.77,10.0,Calm,Calm,-,N/A,,Clear,0,2013-01-11 01:53:00
7:53 PM,51.1,27.0,39,29.76,10.0,South,3.5,-,N/A,,Overcast,170,2013-01-11 02:53:00
8:53 PM,50.0,37.9,63,29.77,10.0,SSW,8.1,-,0.00,,Overcast,210,2013-01-11 03:53:00
9:53 PM,50.0,27.0,41,29.79,10.0,West,18.4,28.8,0.00,,Overcast,280,2013-01-11 04:53:00
10:53 PM,48.9,25.0,39,29.81,10.0,West,19.6,25.3,N/A,,Overcast,270,2013-01-11 05:53:00
11:53 PM,48.0,24.1,39,29.83,10.0,WSW,10.4,19.6,N/A,,Overcast,250,2013-01-11 06:53:00